This demonstration page uses our WeatherBlox Daily Observations layout. Learn more.

41.55636, -103.73856

Hourly Observations for March 14, 2015

Temp ( °F °C ) Dew Point ( °F °C ) Humidity (%) Winds ( mph kmh ) Pressure ( in mb ) Visibility ( mi km ) Precip ( " mm )
12:53 am 00:53 Clear 32 0 23 -5 69 69 NE 6 9 30.35 1028 10 16.0934 0 0
1:53 am 01:53 Clear 28 -2.2 22 -5.6 78 78 NW 3 6 30.37 1029 10 16.0934 0 0
2:53 am 02:53 Clear 30 -1.1 22 -5.6 72 72 NW 5 7 30.36 1028 10 16.0934 0 0
3:53 am 03:53 Clear 25 -3.9 21 -6.1 85 85 Calm 30.37 1028 10 16.0934 0 0
4:53 am 04:53 Clear 26 -3.3 21 -6.1 81 81 NNW 5 7 30.37 1028 10 16.0934 0 0
5:53 am 05:53 Clear 27 -2.8 21 -6.1 78 78 NNE 3 6 30.36 1028 10 16.0934 0 0
6:53 am 06:53 Clear 27 -2.8 21 -6.1 78 78 Calm 30.37 1028 10 16.0934 0 0
7:53 am 07:53 Sunny 29 -1.7 22 -5.6 75 75 E 8 13 30.37 1029 10 16.0934 0 0
8:53 am 08:53 Sunny 39 3.9 26 -3.3 60 60 ESE 12 19 30.34 1028 10 16.0934 0 0
9:53 am 09:53 Sunny 49 9.4 29 -1.7 46 46 SE 8 13 30.3 1026 10 16.0934 0 0
10:53 am 10:53 Sunny 62 16.7 29 -1.7 29 29 SSW 17 28 30.24 1024 10 16.0934 0 0
11:53 am 11:53 Sunny 66 18.9 28 -2.2 24 24 SSW 20 31 30.21 1023 10 16.0934 0 0
12:53 pm 12:53 Sunny 69 20.6 26 -3.3 20 20 WSW 9 15 30.17 1022 10 16.0934 0 0
1:53 pm 13:53 Sunny 70 21.1 24 -4.4 18 18 SSW 13 20 30.15 1021 10 16.0934 0 0
2:53 pm 14:53 Sunny 72 22.2 22 -5.6 15 15 SW 17 28 30.09 1019 10 16.0934 0 0
3:53 pm 15:53 Sunny 72 22.2 20 -6.7 14 14 SW 15 24 30.09 1019 10 16.0934 0 0
4:53 pm 16:53 Sunny 73 22.8 22 -5.6 15 15 SSW 18 30 30.06 1018 10 16.0934 0 0
5:53 pm 17:53 Sunny 69 20.6 23 -5 17 17 SSW 15 24 30.06 1018 10 16.0934 0 0
6:53 pm 18:53 Sunny 62 16.7 23 -5 22 22 S 9 15 30.07 1018 10 16.0934 0 0
7:53 pm 19:53 Clear 58 14.4 22 -5.6 25 25 SSW 8 13 30.07 1018 10 16.0934 0 0
8:53 pm 20:53 Clear 58 14.4 22 -5.6 25 25 SW 14 22 30.04 1017 10 16.0934 0 0
9:53 pm 21:53 Clear 59 15 20 -6.7 22 22 SW 14 22 30.02 1017 10 16.0934 0 0
10:53 pm 22:53 Clear 58 14.4 19 -7.2 22 22 SSW 6 9 29.99 1016 10 16.0934 0 0
11:53 pm 23:53 Clear 54 12.2 21 -6.1 28 28 S 9 15 29.97 1015 10 16.0934 0 0

Powered by AerisWeather